JBU970 KFLL-KBOS

Flight info

Callsign JBU970
Flight time N/A
Altitude 33000
Route FEALX2 ETECK GRUBR Y299 SEELO WAALT Q131 EARZZ JAMIE CONFR Q133 JFK ROBUC3
Aircraft A321/M-VGDW/C

Departure

Time 2026-05-05 19:07
Airport Fort Lauderdale Hollywood International Airport (KFLL)

Arrival

Time N/A
Airport Boston Logan International Airport (KBOS)
Time Latitude Longitude Altitude Speed Heading
2026-05-05 18:41 26.07056 -80.14711 16 ft 0 kts 58°
2026-05-05 18:55 26.07048 -80.14726 17 ft 4 kts 63°
2026-05-05 18:55 26.07037 -80.14753 18 ft 4 kts 75°
2026-05-05 18:56 26.07033 -80.14782 19 ft 4 kts 95°
2026-05-05 18:56 26.07040 -80.14809 18 ft 3 kts 131°
2026-05-05 18:56 26.07046 -80.14816 19 ft 0 kts 135°
2026-05-05 18:58 26.07045 -80.14815 18 ft 0 kts 136°
2026-05-05 18:58 26.07041 -80.14810 18 ft 1 kts 136°
2026-05-05 18:58 26.07034 -80.14803 19 ft 2 kts 137°
2026-05-05 19:01 26.07032 -80.14801 19 ft 1 kts 136°
2026-05-05 19:01 26.07024 -80.14792 24 ft 4 kts 136°
2026-05-05 19:01 26.06990 -80.14757 17 ft 9 kts 137°
2026-05-05 19:01 26.06939 -80.14706 18 ft 10 kts 139°
2026-05-05 19:02 26.06883 -80.14656 15 ft 10 kts 141°
2026-05-05 19:02 26.06830 -80.14602 16 ft 10 kts 136°
2026-05-05 19:02 26.06773 -80.14612 15 ft 10 kts 240°
2026-05-05 19:02 26.06766 -80.14687 15 ft 10 kts 270°
2026-05-05 19:03 26.06767 -80.14764 15 ft 10 kts 270°
2026-05-05 19:03 26.06767 -80.14843 15 ft 10 kts 270°
2026-05-05 19:03 26.06752 -80.14907 17 ft 8 kts 223°
2026-05-05 19:03 26.06708 -80.14939 18 ft 7 kts 228°
2026-05-05 19:04 26.06695 -80.15014 19 ft 13 kts 269°
2026-05-05 19:04 26.06695 -80.15110 20 ft 12 kts 270°
2026-05-05 19:04 26.06696 -80.15203 21 ft 13 kts 270°
2026-05-05 19:04 26.06696 -80.15332 16 ft 20 kts 270°
2026-05-05 19:05 26.06697 -80.15476 16 ft 18 kts 270°
2026-05-05 19:05 26.06698 -80.15602 16 ft 18 kts 271°
2026-05-05 19:05 26.06699 -80.15734 16 ft 11 kts 270°
2026-05-05 19:05 26.06697 -80.15788 16 ft 7 kts 259°
2026-05-05 19:06 26.06661 -80.15820 16 ft 7 kts 198°
2026-05-05 19:06 26.06619 -80.15819 17 ft 5 kts 166°
2026-05-05 19:06 26.06596 -80.15797 18 ft 6 kts 120°
2026-05-05 19:06 26.06589 -80.15731 20 ft 9 kts 91°
2026-05-05 19:07 26.06588 -80.15636 22 ft 34 kts 90°
2026-05-05 19:07 26.06585 -80.15088 21 ft 106 kts 90°
2026-05-05 19:07 26.06580 -80.14060 75 ft 156 kts 92°
2026-05-05 19:07 26.06535 -80.12774 670 ft 162 kts 92°
2026-05-05 19:08 26.06579 -80.11569 1537 ft 157 kts 86°
2026-05-05 19:08 26.06620 -80.10300 2037 ft 170 kts 87°
2026-05-05 19:08 26.06647 -80.08915 2186 ft 189 kts 88°
2026-05-05 19:08 26.06671 -80.07375 2310 ft 209 kts 88°
2026-05-05 19:09 26.06690 -80.05689 2430 ft 229 kts 88°
2026-05-05 19:09 26.06707 -80.03827 2574 ft 252 kts 89°
2026-05-05 19:09 26.06757 -80.01825 2961 ft 263 kts 81°
2026-05-05 19:09 26.07394 -79.99925 3462 ft 267 kts 53°
2026-05-05 19:10 26.08562 -79.98297 3931 ft 272 kts 49°
2026-05-05 19:10 26.09774 -79.96673 4510 ft 275 kts 49°
2026-05-05 19:10 26.11006 -79.95022 5095 ft 279 kts 49°
2026-05-05 19:10 26.12249 -79.93353 5701 ft 281 kts 49°
2026-05-05 19:11 26.13501 -79.91662 6291 ft 284 kts 49°
2026-05-05 19:11 26.14766 -79.89954 6826 ft 288 kts 49°
2026-05-05 19:11 26.16043 -79.88217 7370 ft 292 kts 50°
2026-05-05 19:11 26.17278 -79.86412 7917 ft 295 kts 52°
2026-05-05 19:12 26.18488 -79.84554 8454 ft 298 kts 52°
2026-05-05 19:12 26.19698 -79.82663 8998 ft 301 kts 53°
2026-05-05 19:12 26.20921 -79.80747 9523 ft 305 kts 53°
2026-05-05 19:12 26.22158 -79.78816 10027 ft 309 kts 52°
2026-05-05 19:13 26.23441 -79.76828 10234 ft 324 kts 52°
2026-05-05 19:13 26.24795 -79.74743 10360 ft 341 kts 52°
2026-05-05 19:13 26.26223 -79.72553 10483 ft 358 kts 52°
2026-05-05 19:13 26.27713 -79.70270 10713 ft 369 kts 52°
2026-05-05 19:14 26.29252 -79.67963 11148 ft 372 kts 48°
2026-05-05 19:14 26.31028 -79.65855 11606 ft 374 kts 43°
2026-05-05 19:14 26.32848 -79.63769 12064 ft 377 kts 43°
2026-05-05 19:14 26.34683 -79.61664 12539 ft 380 kts 43°
2026-05-05 19:15 26.36534 -79.59538 13011 ft 383 kts 43°
2026-05-05 19:15 26.38392 -79.57401 13470 ft 386 kts 43°
2026-05-05 19:15 26.40246 -79.55265 13930 ft 389 kts 43°
2026-05-05 19:15 26.42130 -79.53094 14351 ft 391 kts 43°
2026-05-05 19:16 26.44030 -79.50907 14786 ft 393 kts 42°
2026-05-05 19:16 26.45942 -79.48706 15229 ft 395 kts 42°
2026-05-05 19:16 26.47858 -79.46498 15672 ft 397 kts 42°
2026-05-05 19:16 26.49781 -79.44280 16108 ft 399 kts 42°
2026-05-05 19:17 26.51715 -79.42046 16537 ft 401 kts 42°
2026-05-05 19:17 26.53659 -79.39798 16979 ft 403 kts 42°
2026-05-05 19:17 26.55732 -79.37704 17386 ft 401 kts 32°
2026-05-05 19:17 26.58065 -79.36013 17810 ft 399 kts 26°
2026-05-05 19:18 26.60444 -79.34403 18237 ft 401 kts 26°
2026-05-05 19:18 26.62838 -79.32784 18615 ft 403 kts 26°
2026-05-05 19:18 26.65248 -79.31153 18973 ft 406 kts 26°
2026-05-05 19:18 26.67668 -79.29511 19332 ft 408 kts 26°
2026-05-05 19:19 26.70102 -79.27855 19686 ft 410 kts 26°
2026-05-05 19:19 26.72546 -79.26189 20039 ft 413 kts 26°
2026-05-05 19:19 26.75000 -79.24513 20399 ft 415 kts 26°
2026-05-05 19:19 26.77472 -79.22826 20742 ft 417 kts 26°
2026-05-05 19:20 26.79958 -79.21131 21081 ft 419 kts 26°
2026-05-05 19:20 26.82453 -79.19431 21407 ft 421 kts 25°
2026-05-05 19:20 26.84961 -79.17718 21732 ft 423 kts 25°
2026-05-05 19:20 26.87481 -79.15995 22046 ft 425 kts 25°
2026-05-05 19:21 26.89160 -79.14847 22248 ft 427 kts 25°
2026-05-05 19:21 26.91699 -79.13109 22551 ft 429 kts 25°
2026-05-05 19:21 26.94247 -79.11362 22846 ft 431 kts 25°
2026-05-05 19:21 26.96813 -79.09602 23137 ft 433 kts 25°
2026-05-05 19:22 26.99383 -79.07840 23426 ft 434 kts 25°
2026-05-05 19:22 27.01975 -79.06068 23693 ft 436 kts 25°
2026-05-05 19:22 27.04572 -79.04291 23935 ft 438 kts 25°
2026-05-05 19:22 27.07173 -79.02509 24183 ft 439 kts 25°
2026-05-05 19:23 27.09786 -79.00715 24444 ft 441 kts 25°
2026-05-05 19:23 27.12402 -78.98917 24705 ft 442 kts 25°
2026-05-05 19:23 27.15026 -78.97113 24960 ft 443 kts 25°
2026-05-05 19:23 27.17653 -78.95306 25216 ft 444 kts 25°
2026-05-05 19:24 27.20292 -78.93489 25468 ft 445 kts 25°
2026-05-05 19:24 27.22937 -78.91669 25718 ft 446 kts 25°
2026-05-05 19:24 27.25586 -78.89846 25972 ft 447 kts 25°
2026-05-05 19:24 27.28239 -78.88018 26226 ft 448 kts 25°
2026-05-05 19:25 27.30906 -78.86180 26475 ft 450 kts 25°
2026-05-05 19:25 27.33575 -78.84337 26722 ft 451 kts 25°
2026-05-05 19:25 27.36251 -78.82490 26972 ft 452 kts 24°
2026-05-05 19:25 27.38993 -78.80799 27206 ft 446 kts 17°
2026-05-05 19:26 27.41891 -78.79641 27436 ft 438 kts
2026-05-05 19:26 27.44869 -78.79036 27660 ft 433 kts
2026-05-05 19:26 27.47859 -78.78609 27903 ft 434 kts
2026-05-05 19:26 27.50821 -78.78181 28139 ft 435 kts
2026-05-05 19:27 27.53828 -78.77744 28357 ft 436 kts
2026-05-05 19:27 27.56841 -78.77305 28607 ft 437 kts
2026-05-05 19:27 27.59862 -78.76865 28848 ft 438 kts
2026-05-05 19:27 27.62889 -78.76421 29082 ft 439 kts
2026-05-05 19:28 27.65927 -78.75973 29322 ft 441 kts
2026-05-05 19:28 27.68971 -78.75525 29563 ft 442 kts
2026-05-05 19:28 27.72024 -78.75077 29799 ft 443 kts
2026-05-05 19:28 27.75080 -78.74630 30023 ft 443 kts
2026-05-05 19:29 27.78141 -78.74183 30269 ft 443 kts
2026-05-05 19:29 27.81187 -78.73735 30565 ft 441 kts